www.pogodaiklimat.ru

Погода и климат >> Архив погоды >> Россия >> город Москва >> Толстопальцево`


ПОГОДА в Толстопальцево

  • Прогноз погоды в Толстопальцево
  • Монитор погоды в Толстопальцево

АРХИВ ПОГОДЫ в Толстопальцево

Время (UTC), дата Ветер
(напр.,м/с)
 
Видим.   Явления Облачность Т
(С)
Тd
(С)
f
(%)
Тe
(С)
Тes
(С)
Комфортность P
(гПа)
Po
(гПа)
Тmin
(С)
Tmax
(С)
R
(мм)
R24
(мм)
S
(см)
21 18.06 СЗ 2 н/о н/о +18.7 +13.0 69 +20 +20 тепло 1007.1 985.5
00 19.06 ЮЗ 1 н/о н/о +14.4 +10.5 77 +15 +15 тепло 1007.3 985.3
03 19.06 З 1 н/о н/о +16.1 +10.2 68 +17 +17 тепло 1013.8 991.8 +13.6
06 19.06 СЗ 2 н/о н/о +22.7 +11.5 49 +25 +25 комфорт 1020.9 999.2 +13.6
09 19.06 СЗ 2 н/о н/о +24.9 +9.7 38 +26 +26 жарко 1025.0 1003.4
12 19.06 С 1 н/о н/о +26.6 +8.5 32 +27 +27 жарко 1021.7 1000.3
15 19.06 СЗ 2 н/о н/о +26.4 +9.2 34 +27 +27 жарко 1015.2 993.9
18 19.06 З 1 н/о н/о +23.8 +10.0 42 +25 +25 комфорт 1010.6 989.2 +27.2
21 19.06 штиль 0 н/о н/о +16.8 +12.0 73 +17 +17 тепло 1006.9 985.1
00 20.06 штиль 0 н/о н/о +14.3 +11.8 85 +14 +14 по сезону 1010.7 988.6
03 20.06 штиль 0 н/о н/о +16.5 +12.0 75 +16 +16 по сезону 1015.1 993.1 +13.6
06 20.06 З 2 н/о н/о +24.8 +12.7 47 +27 +27 жарко 1024.1 1002.5 +13.6
09 20.06 З 2 н/о н/о +27.1 +8.5 31 +27 +27 жарко 1028.9 1007.4
12 20.06 ЮВ 1 н/о н/о +28.4 +8.7 29 +28 +28 жарко 1022.2 1000.9
15 20.06 Ю 2 н/о н/о +27.1 +9.5 33 +27 +27 жарко 1013.2 992.0
18 20.06 Ю 1 н/о н/о +23.8 +11.5 46 +25 +25 комфорт 1009.9 988.5 +29.3
21 20.06 штиль 0 н/о н/о +18.8 +12.2 65 +19 +19 тепло 1007.7 986.0
00 21.06 ЮВ 1 н/о н/о +15.0 +12.5 85 +16 +16 тепло 1009.9 987.9
03 21.06 штиль 0 н/о н/о +19.8 +12.7 64 +21 +21 комфорт 1016.9 995.1 +13.9
06 21.06 Ю 1 н/о н/о +25.9 +14.0 48 +28 +28 жарко 1023.1 1001.7 +13.9
09 21.06 Ю 3 н/о н/о +28.7 +10.8 33 +29 +29 жарко 1027.4 1006.0
12 21.06 Ю 2 н/о н/о +27.8 +11.7 37 +29 +29 жарко 1018.0 996.8
15 21.06 Ю 1 н/о н/о +28.8 +12.2 36 +30 +30 жарко 1016.6 995.5
18 21.06 Ю 1 н/о н/о +24.8 +13.2 48 +27 +27 жарко 1009.9 988.7 +29.4
21 21.06 Ю 2 н/о н/о +21.6 +13.7 61 +24 +24 комфорт 1008.6 987.1
00 22.06 Ю 1 н/о н/о +19.7 +13.0 65 +22 +22 комфорт 1010.3 988.6
03 22.06 Ю 1 н/о н/о +20.5 +14.0 66 +24 +24 комфорт 1013.7 992.0 +19.3
06 22.06 Ю 1 н/о н/о +24.9 +15.5 56 +28 +28 жарко 1019.2 997.8 +19.3
09 22.06 ЮЗ 3 н/о н/о +27.8 +15.0 46 +30 +30 жарко 1024.6 1003.3
12 22.06 ЮЗ 3 н/о н/о +29.2 +16.0 45 +32 +32 душно 1020.1 999.0
15 22.06 ЮЗ 2 н/о н/о +26.6 +17.2 56 +31 +31 душно 1012.1 991.0 0.5
18 22.06 З 3 н/о н/о +25.4 +16.2 57 +29 +29 душно 1010.7 989.4 +30.6 0.5
21 22.06 З 1 н/о н/о +20.7 +16.7 78 +25 +25 комфорт 1009.8 988.2
00 23.06 СЗ 2 н/о н/о +17.7 +16.5 93 +18 +18 тепло 1011.7 989.9
03 23.06 С 1 н/о н/о +18.5 +17.0 91 +20 +20 тепло 1015.7 993.9 +17.3
06 23.06 С 2 н/о н/о +21.2 +15.5 70 +24 +24 комфорт 1021.9 1000.1 +17.3
09 23.06 С 2 н/о н/о +24.9 +11.2 42 +26 +26 жарко 1030.0 1008.3
12 23.06 З 2 н/о н/о +25.6 +9.8 37 +26 +26 жарко 1025.4 1003.8
15 23.06 СЗ 3 н/о н/о +22.3 +9.7 45 +24 +24 комфорт 1015.6 994.0
18 23.06 СЗ 3 н/о н/о +19.5 +8.7 50 +21 +21 комфорт 1012.7 990.9 +25.9
21 23.06 штиль 0 н/о н/о +18.1 +9.5 57 +18 +18 тепло 1015.1 993.2
00 24.06 СЗ 1 н/о н/о +15.8 +9.5 66 +17 +17 тепло 1015.6 993.5
03 24.06 С 1 н/о н/о +16.7 +10.4 66 +18 +18 тепло 1019.6 997.5 +14.7
06 24.06 С 3 н/о н/о +20.7 +6.2 39 +22 +22 комфорт 1025.4 1003.4 +14.7
09 24.06 СЗ 2 н/о н/о +23.4 +6.2 33 +24 +24 комфорт 1031.3 1009.4
12 24.06 СЗ 3 н/о н/о +24.9 +4.7 27 +24 +24 комфорт 1028.3 1006.5
15 24.06 СЗ 2 н/о н/о +24.1 +5.5 30 +24 +24 комфорт 1020.0 998.4
18 24.06 СЗ 2 н/о н/о +20.3 +5.8 39 +22 +22 комфорт 1016.5 994.7 +25.0
21 24.06 СЗ 1 н/о н/о +15.3 +7.5 60 +16 +16 по сезону 1015.6 993.4
03 25.06 штиль 0 н/о н/о +15.4 +8.2 62 +15 +15 по сезону 1024.1 1001.8 +11.3

 

Местоположение метеостанции Толстопальцево` (город Москва, Россия): широта 55.59 долгота 37.21 высота над уровнем моря 187 м.

В архиве по умолчанию представлена погода в Толстопальцево за последнюю неделю. Архивные данные за месяц целиком и за предыдущие месяцы, начиная с января 2011 года, Вы можете получить, выбрав интересующий диапазон дат из раскрывающегося списка и нажав кнопку "Ввод!".


*Определитесь, кто Вы:
робот инопланетянин человек

Внимание! Время в таблицах - всемирное. Для получения местного времени необходимо прибавить поправку, которая равна 3 ч.

Смотрите также архив погоды в соседних городах и на ближайших метеорологических станциях:

Погода в Внуково (Московская область, Россия) (5 км)
Погода в Подмосковной (Московская область, Россия) (14 км)
Погода в Немчиновке (город Москва, Россия) (16 км)
Погода в Москве (Бутово) (город Москва, Россия) (21 км)
Погода в Михайловском (город Москва, Россия) (24 км)
Погода в Красногорске (Московская область, Россия) (26 км)
Погода в Москве (Строгино) (город Москва, Россия) (26 км)
Погода в Москве (Балчуг) (город Москва, Россия) (32 км)
Погода в Москве (Тушино) (город Москва, Россия) (33 км)
Погода в Горках Ленинских (Московская область, Россия) (37 км)

Пояснения к столбцам:

Ветер - указаны скорость ветра в м/с - средняя за 10 мин, порывы в срок и между сроками (в фигурных скобках) и направление, откуда дует ветер: С - северный, СВ - северо-восточный, В - восточный, ЮВ - юго-восточный, Ю - южный, ЮЗ - юго-западный, З - западный, СЗ - северо-западный.
Видимость - горизонтальная дальность видимости в метрах или километрах. При видимости от 1 до 10 км при отсутствии осадков обычно наблюдается дымка, при ухудшении видимости до 1 км и менее - туман. В сухую погоду видимость может ухудшаться дымом, пылью или мглою.
Явления - указаны атмосферные явления, наблюдавшиеся в срок или в последний час перед сроком; фигурными скобками обозначены явления, наблюдавшиеся между сроками (за 1-3 часа до срока); квадратными скобками обозначены град или гололедные отложения с указанием их диаметра в мм.
Облачность - указаны через наклонную черту общая и нижняя облачность в баллах и высота нижней границы облаков в метрах; квадратными скобками обозначены формы облаков: Ci - перистые, Cs - перисто-слоистые, Cc - перисто-кучевые, Ac - высококучевые, As - высокослоистые, Sc - слоисто-кучевые, Ns - слоисто-дождевые, Cu - кучевые, Cb - кучево-дождевые. Подробнее классификацию облаков см. в Атласе облаков (PDF).
T - Температура воздуха - температура, измеренная на высоте 2 м над землей.
Td - Температура точки росы - температура, при понижении до которой содержащийся в воздухе водяной пар достигнет насыщения.
f - Относительная влажность воздуха - влажноcть воздуха, измеренная на высоте 2 м над землей.
Te - Эффективная температура - температура, которую ощущает одетый по сезону человек в тени. Характеристика душности погоды. При расчете учитывается влияние влажности воздуха и скорости ветра на теплоощущения человека.
Tes - Эффективная температура на солнце - температура, которую ощущает человек, с поправкой на солнечный нагрев. Характеристика знойности погоды. Зависит от высоты солнца над горизонтом, облачности и скорости ветра. Ночью, в пасмурную погоду, а также при ветре 12 м/с и более поправка равна нулю.
P - Атмосферное давление - приведенное к уровню моря атмосферное давление.
Po - Атмосферное давление - измеренное на уровне метеостанции атмосферное давление.
Tmin - Минимальная температура - минимум температуры воздуха на высоте 2 м над землей.
Tmax - Максимальная температура - максимум температуры воздуха на высоте 2 м над землей.
R - Количество осадков - Количество выпавших осадков за период времени, мм. При наведении курсора мыши на число - период времени, за который выпало указанное количество осадков.
R24 - Количество осадков - Количество выпавших осадков за 24 часа, мм.
S - Снежный покров - Высота снежного покрова, см. При наведении курсора мыши на число - состояние снежного покрова и степень покрытия местности в баллах.